Honolulu, HI

1:47 AM HST on May 25, 2017 (GMT -1000)
Honolulu International

Weather History for PHNL - December, 2013

Change the Weather History Date:

Sunday, December 1, 2013

  Actual Average Record
Temperature  
Mean Temperature 73 °F 76 °F  
Max Temperature 77 °F 82 °F 89 °F (1979)
Min Temperature 69 °F 70 °F 58 °F (1972)
Degree Days  
Heating Degree Days 0 0  
Month to date heating degree days 0 0  
Since 1 July heating degree days 0 0  
Cooling Degree Days 8 11  
Month to date cooling degree days 8 11  
Year to date cooling degree days 4145 4337  
Growing Degree Days 24 (Base 50)    
Moisture  
Dew Point 70 °F    
Average Humidity 87    
Maximum Humidity 100    
Minimum Humidity 74    
Precipitation  
Precipitation 1.45 in 0.08 in 1.45 in (2013)
Month to date precipitation 1.45 0.08  
Year to date precipitation 13.99 13.94  
Snow  
Snow 0.00 in - - ()
Month to date snowfall 0.0  
Since 1 July snowfall 0.0  
Snow Depth 0.00 in    
Sea Level Pressure  
Sea Level Pressure 29.95 in    
Wind  
Wind Speed 8 mph (SSE)    
Max Wind Speed 21 mph    
Max Gust Speed 28 mph    
Visibility 6 miles    
Events Rain , Thunderstorm    
T = Trace of Precipitation, MM = Missing Value Source: NWS Daily Summary

Daily Weather History Graph

Daily Weather History Graph

Search for Another Location

Airport or City:

Trip Planner

Search our weather history database for the weather conditions in past years. The results will help you decide how hot, cold, wet, or windy it might be!

Date:

Astronomy

Dec. 01, 2013 Rise Set
Actual Time 6:53 AM HST 5:48 PM HST
Civil Twilight 6:29 AM HST 6:12 PM HST
Nautical Twilight 6:01 AM HST 6:40 PM HST
Astronomical Twilight 5:34 AM HST 7:07 PM HST
Moon 5:32 AM HST (12/1) 5:01 PM HST (12/1)
Length of Visible Light 11h 43m
Length of Day
10h 55m
Waning Crescent, 2% of the Moon is Illuminated
Dec 1
Waning Crescent
Dec 2
New
Dec 9
First Quarter
Dec 16
Full
Dec 25
Last Quarter

Hourly Weather History & Observations

Time (HST) Temp. Dew Point Humidity Pressure Visibility Wind Dir Wind Speed Gust Speed Precip Events Conditions
12:53 AM 77.0 °F 68.0 °F 74% 29.92 in 10.0 mi SSE 19.6 mph 26.5 mph N/A   Mostly Cloudy
1:53 AM 77.0 °F 68.0 °F 74% 29.91 in 10.0 mi SSE 18.4 mph 27.6 mph N/A   Mostly Cloudy
2:53 AM 77.0 °F 68.0 °F 74% 29.91 in 10.0 mi SSE 18.4 mph 27.6 mph N/A   Partly Cloudy
3:44 AM 77.0 °F 69.8 °F 78% 29.92 in 10.0 mi SSE 16.1 mph 21.9 mph N/A   Mostly Cloudy
3:53 AM 77.0 °F 69.1 °F 76% 29.92 in 10.0 mi SSE 13.8 mph - N/A   Mostly Cloudy
4:08 AM 77.0 °F 68.0 °F 74% 29.92 in 10.0 mi SSE 15.0 mph 23.0 mph N/A   Overcast
4:53 AM 77.0 °F 68.0 °F 74% 29.92 in 10.0 mi SE 13.8 mph - N/A   Mostly Cloudy
5:53 AM 75.9 °F 69.1 °F 79% 29.92 in 10.0 mi SE 10.4 mph - 0.00 in   Mostly Cloudy
6:53 AM 77.0 °F 69.1 °F 76% 29.93 in 10.0 mi SSE 10.4 mph - N/A   Overcast
7:53 AM 75.9 °F 70.0 °F 82% 29.94 in 7.0 mi SSE 10.4 mph - 0.00 in Rain Light Rain
8:22 AM 75.2 °F 71.6 °F 89% 29.94 in 6.0 mi SSE 11.5 mph 19.6 mph 0.01 in Rain Light Rain
8:53 AM 75.0 °F 72.0 °F 90% 29.96 in 9.0 mi South 17.3 mph 25.3 mph 0.04 in   Overcast
9:01 AM 69.8 °F 66.2 °F 88% 29.99 in 2.0 mi SSW 19.6 mph 27.6 mph 0.01 in Rain Heavy Rain
9:07 AM 69.8 °F 66.2 °F 88% 29.99 in 0.8 mi SSW 15.0 mph 27.6 mph 0.12 in Rain Heavy Rain
9:13 AM 69.8 °F 69.8 °F 100% 29.99 in 1.0 mi SSW 17.3 mph 25.3 mph 0.20 in Rain Heavy Rain
9:20 AM 69.8 °F 69.8 °F 100% 29.99 in 2.0 mi SSW 16.1 mph 24.2 mph 0.23 in Rain , Thunderstorm Thunderstorms and Rain
9:29 AM 69.8 °F 69.8 °F 100% 30.00 in 3.0 mi SSW 12.7 mph - 0.26 in Rain , Thunderstorm Thunderstorms and Rain
9:32 AM 69.8 °F 69.8 °F 100% 30.00 in 2.0 mi SSW 10.4 mph 20.7 mph 0.26 in Rain , Thunderstorm Thunderstorms and Rain
9:43 AM 69.8 °F 69.8 °F 100% 29.99 in 3.0 mi South 3.5 mph - 0.32 in Rain , Thunderstorm Thunderstorms and Rain
9:50 AM 69.8 °F 69.8 °F 100% 29.99 in 2.5 mi Calm Calm - 0.36 in Rain Heavy Rain
9:53 AM 69.1 °F 69.1 °F 100% 29.99 in 2.5 mi SSE 3.5 mph - 0.38 in Rain Rain
9:57 AM 69.8 °F 69.8 °F 100% 29.99 in 3.0 mi SE 3.5 mph - 0.00 in Rain Light Rain
10:18 AM 69.8 °F 69.8 °F 100% 29.99 in 2.0 mi South 5.8 mph - 0.03 in Rain , Thunderstorm Thunderstorms and Rain
10:27 AM 69.8 °F 69.8 °F 100% 29.99 in 1.5 mi SSE 9.2 mph - 0.13 in Rain , Thunderstorm Thunderstorms and Rain
10:33 AM 69.8 °F 69.8 °F 100% 29.99 in 2.5 mi SSE 10.4 mph - 0.14 in Rain , Thunderstorm Thunderstorms and Rain
10:45 AM 69.8 °F 69.8 °F 100% 29.98 in 1.8 mi South 8.1 mph - 0.21 in Rain , Thunderstorm Thunderstorms and Rain
10:53 AM 70.0 °F 70.0 °F 100% 29.99 in 1.5 mi SSE 8.1 mph - 0.32 in Rain , Thunderstorm Thunderstorms and Rain
11:00 AM 69.8 °F 69.8 °F 100% 29.98 in 1.8 mi SSE 10.4 mph - 0.06 in Rain , Thunderstorm Thunderstorms and Rain
11:03 AM 69.8 °F 69.8 °F 100% 29.97 in 2.0 mi Variable 6.9 mph - 0.07 in Rain , Thunderstorm Thunderstorms and Rain
11:07 AM 69.8 °F 69.8 °F 100% 29.98 in 3.0 mi SSW 6.9 mph - 0.08 in Rain , Thunderstorm Thunderstorms and Rain
11:15 AM 71.6 °F 71.6 °F 100% 29.97 in 4.0 mi East 6.9 mph - 0.10 in Rain Rain
11:24 AM 69.8 °F 69.8 °F 100% 29.97 in 7.0 mi East 6.9 mph - 0.11 in Rain , Thunderstorm Light Thunderstorms and Rain
11:35 AM 69.8 °F 69.8 °F 100% 29.98 in 2.5 mi East 8.1 mph - 0.14 in Rain , Thunderstorm Thunderstorms and Rain
11:49 AM 69.8 °F 69.8 °F 100% 29.97 in 7.0 mi ENE 8.1 mph - 0.16 in Rain Light Rain
11:53 AM 70.0 °F 70.0 °F 100% 29.97 in 9.0 mi East 8.1 mph - 0.16 in Rain Light Rain
11:58 AM 69.8 °F 69.8 °F 100% 29.97 in 10.0 mi East 8.1 mph - 0.00 in Rain Light Rain
12:18 PM 71.6 °F 71.6 °F 100% 29.96 in 10.0 mi ESE 5.8 mph - 0.00 in Rain Light Rain
12:33 PM 71.6 °F 71.6 °F 100% 29.96 in 10.0 mi SSE 10.4 mph - 0.01 in Rain Light Rain
12:45 PM 71.6 °F 71.6 °F 100% 29.94 in 2.0 mi South 9.2 mph - 0.06 in Rain Heavy Rain
12:53 PM 71.1 °F 71.1 °F 100% 29.93 in 3.0 mi SSW 5.8 mph - 0.09 in Rain Rain
1:14 PM 71.6 °F 71.6 °F 100% 29.93 in 7.0 mi SSW 6.9 mph - 0.03 in Rain Light Rain
1:53 PM 71.1 °F 71.1 °F 100% 29.90 in 10.0 mi NNE 3.5 mph - 0.03 in Rain Light Rain
2:30 PM 71.6 °F 71.6 °F 100% 29.92 in 3.0 mi West 3.5 mph - 0.07 in Rain , Thunderstorm Thunderstorms and Rain
2:40 PM 71.6 °F 71.6 °F 100% 29.90 in 2.0 mi NW 9.2 mph - 0.11 in Rain , Thunderstorm Heavy Thunderstorms and Rain
2:48 PM 71.6 °F 71.6 °F 100% 29.91 in 1.8 mi NNW 4.6 mph - 0.17 in Rain , Thunderstorm Heavy Thunderstorms and Rain
2:53 PM 70.0 °F 70.0 °F 100% 29.92 in 2.0 mi Calm Calm - 0.19 in Rain , Thunderstorm Thunderstorms and Rain
3:00 PM 69.8 °F 69.8 °F 100% 29.92 in 2.5 mi Calm Calm - 0.02 in Rain , Thunderstorm Thunderstorms and Rain
3:04 PM 69.8 °F 69.8 °F 100% 29.92 in 2.0 mi Calm Calm - 0.04 in Rain Heavy Rain
3:17 PM 69.8 °F 69.8 °F 100% 29.93 in 2.5 mi WSW 6.9 mph - 0.09 in Rain Rain
3:26 PM 69.8 °F 69.8 °F 100% 29.93 in 5.0 mi West 6.9 mph - 0.10 in Rain Light Rain
3:53 PM 70.0 °F 70.0 °F 100% 29.92 in 6.0 mi NNE 5.8 mph - 0.12 in Rain Light Rain
4:26 PM 69.8 °F 69.8 °F 100% 29.92 in 10.0 mi NE 5.8 mph - 0.01 in Thunderstorm Thunderstorm
4:44 PM 69.8 °F 69.8 °F 100% 29.93 in 10.0 mi Calm Calm - 0.01 in   Mostly Cloudy
4:53 PM 70.0 °F 70.0 °F 100% 29.94 in 9.0 mi WNW 3.5 mph - 0.01 in Rain Light Rain
5:53 PM 70.0 °F 70.0 °F 100% 29.95 in 10.0 mi NNW 4.6 mph - 0.09 in Rain Light Rain
6:53 PM 69.1 °F 69.1 °F 100% 29.96 in 10.0 mi ENE 4.6 mph - 0.00 in   Mostly Cloudy
7:53 PM 69.1 °F 69.1 °F 100% 29.98 in 10.0 mi East 6.9 mph - N/A   Mostly Cloudy
8:53 PM 69.1 °F 69.1 °F 100% 29.99 in 10.0 mi NNW 3.5 mph - N/A   Mostly Cloudy
9:53 PM 69.1 °F 69.1 °F 100% 30.00 in 9.0 mi ENE 6.9 mph - 0.02 in Rain Light Rain
10:53 PM 69.1 °F 68.0 °F 96% 30.00 in 10.0 mi Calm Calm - 0.00 in Rain Light Rain
11:53 PM 69.1 °F 68.0 °F 96% 29.99 in 10.0 mi NNW 4.6 mph - 0.00 in Rain Light Rain